{"data":{"norad_id":58868,"epoch":"2026-09-19T06:25:01.045344Z","epoch_age_seconds":259009,"freshness":"STALE","line1":"1 58868U 24019R   26262.26737321  .00000601  00000+0  31381-4 0  9996","line2":"2 58868  43.0025 236.0385 0001406 272.2255  87.8436 15.27574501148662","mean_motion":15.27574501,"eccentricity":0.0001406,"inclination_deg":43.0025,"raan_deg":236.0385,"arg_perigee_deg":272.2255,"mean_anomaly_deg":87.8436,"bstar":3.1381e-5,"rev_number":14866,"period_min":94.267088057396,"perigee_km":482.10087699307,"apogee_km":484.03024715353,"semimajor_km":6861.2025620733,"source":"CELESTRAK","updated_at":"2026-09-21T09:00:33.989995Z"}}